Time,TemperatureF,DewpointF,PressureIn,WindDirection,WindDirectionDegrees,WindSpeedMPH,WindSpeedGustMPH,Humidity,HourlyPrecipIn,Conditions,Clouds,dailyrainin,SoftwareType,DateUTC
2013-02-13 00:08:00,19.3,16.0,29.87,North,-999,7.0,9.0,87,0.00,,,0.00,weatherlink.com 1.10,2013-02-13 06:08:00,
2013-02-13 00:24:00,19.2,16.0,29.87,North,-999,4.0,7.0,88,0.00,,,0.00,weatherlink.com 1.10,2013-02-13 06:24:00,
2013-02-13 00:38:00,19.6,17.0,29.87,North,-999,6.0,8.0,88,0.00,,,0.00,weatherlink.com 1.10,2013-02-13 06:38:00,
2013-02-13 00:53:00,19.7,17.0,29.86,North,-999,6.0,7.0,88,0.00,,,0.00,weatherlink.com 1.10,2013-02-13 06:53:00,
2013-02-13 01:09:00,19.6,17.0,29.85,North,-999,6.0,6.0,88,0.00,,,0.00,weatherlink.com 1.10,2013-02-13 07:09:00,
2013-02-13 01:39:00,20.0,17.0,29.85,North,-999,4.0,6.0,88,0.00,,,0.00,weatherlink.com 1.10,2013-02-13 07:39:00,
2013-02-13 01:54:00,20.1,17.0,29.85,North,-999,3.0,6.0,88,0.00,,,0.00,weatherlink.com 1.10,2013-02-13 07:54:00,
2013-02-13 02:09:00,19.6,17.0,29.85,North,-999,5.0,6.0,88,0.00,,,0.00,weatherlink.com 1.10,2013-02-13 08:09:00,
2013-02-13 02:24:00,19.4,17.0,29.84,North,-999,4.0,7.0,89,0.00,,,0.00,weatherlink.com 1.10,2013-02-13 08:24:00,
2013-02-13 02:39:00,19.5,17.0,29.84,North,-999,5.0,6.0,89,0.00,,,0.00,weatherlink.com 1.10,2013-02-13 08:39:00,
2013-02-13 02:55:00,18.3,15.0,29.84,North,-999,7.0,7.0,88,0.00,,,0.00,weatherlink.com 1.10,2013-02-13 08:55:00,
2013-02-13 03:09:00,17.9,15.0,29.84,North,-999,5.0,6.0,89,0.00,,,0.00,weatherlink.com 1.10,2013-02-13 09:09:00,
2013-02-13 03:24:00,17.8,15.0,29.83,North,-999,4.0,6.0,89,0.00,,,0.00,weatherlink.com 1.10,2013-02-13 09:24:00,
2013-02-13 03:39:00,17.1,14.0,29.83,North,-999,6.0,9.0,89,0.00,,,0.00,weatherlink.com 1.10,2013-02-13 09:39:00,
2013-02-13 03:54:00,16.4,14.0,29.83,North,-999,5.0,8.0,90,0.00,,,0.00,weatherlink.com 1.10,2013-02-13 09:54:00,
2013-02-13 04:09:00,16.2,14.0,29.83,North,-999,6.0,7.0,91,0.00,,,0.00,weatherlink.com 1.10,2013-02-13 10:09:00,
2013-02-13 04:24:00,16.8,15.0,29.82,North,-999,7.0,9.0,91,0.00,,,0.00,weatherlink.com 1.10,2013-02-13 10:24:00,
2013-02-13 04:39:00,17.1,15.0,29.82,North,-999,5.0,7.0,91,0.00,,,0.00,weatherlink.com 1.10,2013-02-13 10:39:00,
2013-02-13 04:54:00,17.0,15.0,29.81,North,-999,4.0,6.0,90,0.00,,,0.00,weatherlink.com 1.10,2013-02-13 10:54:00,
2013-02-13 05:09:00,17.1,15.0,29.81,North,-999,4.0,5.0,91,0.00,,,0.00,weatherlink.com 1.10,2013-02-13 11:09:00,
2013-02-13 05:24:00,17.2,15.0,29.80,North,-999,3.0,6.0,91,0.00,,,0.00,weatherlink.com 1.10,2013-02-13 11:24:00,
2013-02-13 05:39:00,17.7,16.0,29.79,North,-999,2.0,5.0,91,0.00,,,0.00,weatherlink.com 1.10,2013-02-13 11:39:00,
2013-02-13 05:54:00,17.5,15.0,29.80,North,-999,0.0,3.0,90,0.00,,,0.00,weatherlink.com 1.10,2013-02-13 11:54:00,
2013-02-13 06:09:00,17.7,15.0,29.80,North,-999,3.0,5.0,90,0.00,,,0.00,weatherlink.com 1.10,2013-02-13 12:09:00,
2013-02-13 06:24:00,17.7,15.0,29.80,North,-999,2.0,5.0,90,0.00,,,0.00,weatherlink.com 1.10,2013-02-13 12:24:00,
2013-02-13 06:39:00,17.7,16.0,29.79,North,-999,2.0,3.0,91,0.00,,,0.00,weatherlink.com 1.10,2013-02-13 12:39:00,
2013-02-13 06:54:00,18.0,16.0,29.79,North,-999,4.0,5.0,90,0.00,,,0.00,weatherlink.com 1.10,2013-02-13 12:54:00,
2013-02-13 07:09:00,18.5,16.0,29.78,North,-999,2.0,4.0,91,0.00,,,0.00,weatherlink.com 1.10,2013-02-13 13:09:00,
2013-02-13 07:25:00,19.1,17.0,29.78,North,-999,3.0,5.0,90,0.00,,,0.00,weatherlink.com 1.10,2013-02-13 13:25:00,
2013-02-13 07:39:00,19.3,17.0,29.78,North,-999,3.0,5.0,90,0.00,,,0.00,weatherlink.com 1.10,2013-02-13 13:39:00,
2013-02-13 07:54:00,19.9,18.0,29.77,North,-999,4.0,5.0,90,0.00,,,0.00,weatherlink.com 1.10,2013-02-13 13:54:00,
2013-02-13 08:09:00,19.4,16.0,29.77,North,-999,3.0,5.0,88,0.00,,,0.00,weatherlink.com 1.10,2013-02-13 14:09:00,
2013-02-13 08:24:00,19.1,16.0,29.77,North,-999,2.0,4.0,89,0.00,,,0.00,weatherlink.com 1.10,2013-02-13 14:24:00,
2013-02-13 08:39:00,19.9,17.0,29.77,North,-999,1.0,3.0,89,0.00,,,0.00,weatherlink.com 1.10,2013-02-13 14:39:00,
2013-02-13 08:55:00,21.5,18.0,29.77,North,-999,1.0,1.0,86,0.00,,,0.00,weatherlink.com 1.10,2013-02-13 14:55:00,
2013-02-13 09:09:00,21.5,18.0,29.78,North,-999,2.0,4.0,85,0.00,,,0.00,weatherlink.com 1.10,2013-02-13 15:09:00,
2013-02-13 09:24:00,21.9,18.0,29.77,North,-999,3.0,7.0,85,0.00,,,0.00,weatherlink.com 1.10,2013-02-13 15:24:00,
2013-02-13 09:39:00,22.2,18.0,29.77,North,-999,7.0,7.0,85,0.00,,,0.00,weatherlink.com 1.10,2013-02-13 15:39:00,
2013-02-13 09:55:00,23.4,19.0,29.77,North,-999,5.0,8.0,84,0.00,,,0.00,weatherlink.com 1.10,2013-02-13 15:55:00,
2013-02-13 10:10:00,24.7,20.0,29.77,North,-999,8.0,11.0,82,0.00,,,0.00,weatherlink.com 1.10,2013-02-13 16:10:00,
2013-02-13 10:25:00,25.9,21.0,29.76,North,-999,5.0,11.0,81,0.00,,,0.00,weatherlink.com 1.10,2013-02-13 16:25:00,
2013-02-13 10:40:00,26.2,21.0,29.76,North,-999,6.0,12.0,81,0.00,,,0.00,weatherlink.com 1.10,2013-02-13 16:40:00,
2013-02-13 10:55:00,27.1,22.0,29.76,North,-999,7.0,12.0,80,0.00,,,0.00,weatherlink.com 1.10,2013-02-13 16:55:00,
2013-02-13 11:10:00,28.8,23.0,29.75,North,-999,7.0,12.0,78,0.00,,,0.00,weatherlink.com 1.10,2013-02-13 17:10:00,
2013-02-13 11:25:00,30.6,24.0,29.75,North,-999,8.0,11.0,76,0.00,,,0.00,weatherlink.com 1.10,2013-02-13 17:25:00,
2013-02-13 11:40:00,31.7,24.0,29.74,North,-999,4.0,10.0,74,0.00,,,0.00,weatherlink.com 1.10,2013-02-13 17:40:00,
2013-02-13 11:55:00,31.3,24.0,29.73,North,-999,6.0,12.0,75,0.00,,,0.00,weatherlink.com 1.10,2013-02-13 17:55:00,
2013-02-13 12:10:00,30.9,24.0,29.73,North,-999,5.0,11.0,76,0.00,,,0.00,weatherlink.com 1.10,2013-02-13 18:10:00,
2013-02-13 12:25:00,32.1,25.0,29.72,North,-999,4.0,10.0,74,0.00,,,0.00,weatherlink.com 1.10,2013-02-13 18:25:00,
2013-02-13 12:40:00,32.1,25.0,29.71,North,-999,7.0,10.0,74,0.00,,,0.00,weatherlink.com 1.10,2013-02-13 18:40:00,
2013-02-13 12:55:00,32.3,25.0,29.71,North,-999,8.0,11.0,75,0.00,,,0.00,weatherlink.com 1.10,2013-02-13 18:55:00,
2013-02-13 13:11:00,32.9,25.0,29.70,North,-999,3.0,11.0,73,0.00,,,0.00,weatherlink.com 1.10,2013-02-13 19:11:00,
2013-02-13 13:25:00,33.4,26.0,29.70,North,-999,3.0,9.0,73,0.00,,,0.00,weatherlink.com 1.10,2013-02-13 19:25:00,
2013-02-13 13:55:00,34.3,26.0,29.69,North,-999,7.0,10.0,71,0.02,,,0.02,weatherlink.com 1.10,2013-02-13 19:55:00,
2013-02-13 14:10:00,34.4,26.0,29.69,North,-999,4.0,13.0,71,0.02,,,0.02,weatherlink.com 1.10,2013-02-13 20:10:00,
2013-02-13 14:25:00,34.2,26.0,29.69,North,-999,7.0,11.0,72,0.03,,,0.03,weatherlink.com 1.10,2013-02-13 20:25:00,
2013-02-13 14:40:00,33.5,26.0,29.69,North,-999,5.0,10.0,75,0.02,,,0.03,weatherlink.com 1.10,2013-02-13 20:40:00,
2013-02-13 14:56:00,33.3,26.0,29.69,North,-999,3.0,8.0,74,0.01,,,0.03,weatherlink.com 1.10,2013-02-13 20:56:00,
2013-02-13 15:10:00,33.5,27.0,29.69,North,-999,5.0,9.0,76,0.02,,,0.04,weatherlink.com 1.10,2013-02-13 21:10:00,
2013-02-13 15:26:00,33.6,26.0,29.69,North,-999,3.0,7.0,75,0.01,,,0.04,weatherlink.com 1.10,2013-02-13 21:26:00,
2013-02-13 15:41:00,33.6,27.0,29.69,North,-999,2.0,8.0,77,0.01,,,0.04,weatherlink.com 1.10,2013-02-13 21:41:00,
2013-02-13 15:56:00,33.8,27.0,29.69,North,-999,2.0,7.0,77,0.01,,,0.04,weatherlink.com 1.10,2013-02-13 21:56:00,
2013-02-13 16:11:00,33.7,28.0,29.68,North,-999,3.0,6.0,79,0.00,,,0.04,weatherlink.com 1.10,2013-02-13 22:11:00,
2013-02-13 16:26:00,33.3,28.0,29.68,North,-999,2.0,7.0,81,0.00,,,0.04,weatherlink.com 1.10,2013-02-13 22:26:00,
2013-02-13 16:41:00,32.6,29.0,29.67,North,-999,3.0,5.0,85,0.00,,,0.04,weatherlink.com 1.10,2013-02-13 22:41:00,
2013-02-13 16:56:00,31.8,29.0,29.66,North,-999,2.0,3.0,88,0.00,,,0.04,weatherlink.com 1.10,2013-02-13 22:56:00,
2013-02-13 17:11:00,31.4,29.0,29.66,North,-999,3.0,4.0,90,0.00,,,0.04,weatherlink.com 1.10,2013-02-13 23:11:00,
2013-02-13 17:26:00,31.0,29.0,29.66,North,-999,1.0,3.0,92,0.00,,,0.04,weatherlink.com 1.10,2013-02-13 23:26:00,
2013-02-13 17:41:00,30.7,29.0,29.66,North,-999,0.0,2.0,93,0.00,,,0.04,weatherlink.com 1.10,2013-02-13 23:41:00,
2013-02-13 17:56:00,30.4,29.0,29.66,North,-999,2.0,2.0,94,0.00,,,0.04,weatherlink.com 1.10,2013-02-13 23:56:00,
2013-02-13 18:11:00,30.4,29.0,29.66,North,-999,1.0,3.0,94,0.00,,,0.04,weatherlink.com 1.10,2013-02-14 00:11:00,
2013-02-13 18:26:00,30.3,29.0,29.65,North,-999,1.0,2.0,95,0.00,,,0.04,weatherlink.com 1.10,2013-02-14 00:26:00,
2013-02-13 18:41:00,30.4,29.0,29.66,North,-999,0.0,1.0,95,0.00,,,0.04,weatherlink.com 1.10,2013-02-14 00:41:00,
2013-02-13 18:56:00,30.4,29.0,29.65,North,-999,0.0,2.0,96,0.00,,,0.04,weatherlink.com 1.10,2013-02-14 00:56:00,
2013-02-13 19:11:00,30.4,29.0,29.65,North,-999,0.0,2.0,96,0.00,,,0.04,weatherlink.com 1.10,2013-02-14 01:11:00,
2013-02-13 19:26:00,30.4,29.0,29.64,North,-999,0.0,2.0,96,0.00,,,0.04,weatherlink.com 1.10,2013-02-14 01:26:00,
2013-02-13 19:41:00,30.4,29.0,29.64,North,-999,1.0,1.0,96,0.00,,,0.04,weatherlink.com 1.10,2013-02-14 01:41:00,
2013-02-13 19:56:00,30.4,29.0,29.64,North,-999,1.0,1.0,96,0.00,,,0.04,weatherlink.com 1.10,2013-02-14 01:56:00,
2013-02-13 20:11:00,30.4,29.0,29.63,North,-999,0.0,1.0,96,0.00,,,0.04,weatherlink.com 1.10,2013-02-14 02:11:00,
2013-02-13 20:26:00,30.4,29.0,29.63,North,-999,1.0,2.0,96,0.00,,,0.04,weatherlink.com 1.10,2013-02-14 02:26:00,
2013-02-13 20:41:00,30.3,30.0,29.63,North,-999,1.0,2.0,97,0.00,,,0.04,weatherlink.com 1.10,2013-02-14 02:41:00,
2013-02-13 20:56:00,30.3,30.0,29.62,North,-999,1.0,2.0,97,0.00,,,0.04,weatherlink.com 1.10,2013-02-14 02:56:00,
2013-02-13 21:11:00,30.3,30.0,29.62,North,-999,1.0,2.0,97,0.00,,,0.04,weatherlink.com 1.10,2013-02-14 03:11:00,
2013-02-13 21:26:00,30.2,30.0,29.62,North,-999,2.0,3.0,97,0.00,,,0.04,weatherlink.com 1.10,2013-02-14 03:26:00,
2013-02-13 21:41:00,30.2,30.0,29.63,North,-999,2.0,2.0,97,0.00,,,0.04,weatherlink.com 1.10,2013-02-14 03:41:00,
2013-02-13 21:56:00,30.1,29.0,29.63,North,-999,3.0,3.0,97,0.00,,,0.04,weatherlink.com 1.10,2013-02-14 03:56:00,
2013-02-13 22:11:00,30.0,29.0,29.63,North,-999,3.0,4.0,97,0.00,,,0.04,weatherlink.com 1.10,2013-02-14 04:11:00,
2013-02-13 22:41:00,30.0,29.0,29.63,North,-999,5.0,5.0,97,0.00,,,0.04,weatherlink.com 1.10,2013-02-14 04:41:00,
2013-02-13 22:57:00,29.9,29.0,29.64,North,-999,6.0,8.0,97,0.00,,,0.04,weatherlink.com 1.10,2013-02-14 04:57:00,
2013-02-13 23:11:00,29.8,29.0,29.64,North,-999,4.0,8.0,97,0.00,,,0.04,weatherlink.com 1.10,2013-02-14 05:11:00,
2013-02-13 23:26:00,29.7,29.0,29.65,North,-999,9.0,10.0,97,0.00,,,0.04,weatherlink.com 1.10,2013-02-14 05:26:00,
2013-02-13 23:41:00,29.8,29.0,29.65,North,-999,5.0,11.0,97,0.00,,,0.04,weatherlink.com 1.10,2013-02-14 05:41:00,
2013-02-13 23:56:00,29.9,29.0,29.66,North,-999,10.0,12.0,97,0.00,,,0.04,weatherlink.com 1.10,2013-02-14 05:56:00,